TimeCDT,TemperatureF,Dew PointF,Humidity,Sea Level PressureIn,VisibilityMPH,Wind Direction,Wind SpeedMPH,Gust SpeedMPH,PrecipitationIn,Events,Conditions,WindDirDegrees,DateUTC
12:53 AM,27.0,21.9,81,30.43,10.0,Calm,Calm,-,N/A,,Clear,0,2012-10-27 05:53:00
1:53 AM,27.0,23.0,85,30.43,10.0,NW,4.6,-,N/A,,Clear,320,2012-10-27 06:53:00
2:53 AM,26.1,21.9,84,30.43,10.0,WNW,4.6,-,N/A,,Clear,290,2012-10-27 07:53:00
3:53 AM,24.1,21.0,88,30.41,10.0,WNW,3.5,-,N/A,,Clear,300,2012-10-27 08:53:00
4:53 AM,24.1,21.0,88,30.41,10.0,WSW,5.8,-,N/A,,Clear,250,2012-10-27 09:53:00
5:53 AM,21.9,19.0,89,30.43,10.0,Calm,Calm,-,N/A,,Clear,0,2012-10-27 10:53:00
6:53 AM,24.1,21.0,88,30.45,10.0,Calm,Calm,-,N/A,,Clear,0,2012-10-27 11:53:00
7:53 AM,23.0,19.9,88,30.45,10.0,Calm,Calm,-,N/A,,Clear,0,2012-10-27 12:53:00
8:53 AM,28.0,25.0,88,30.45,10.0,Calm,Calm,-,N/A,,Clear,0,2012-10-27 13:53:00
9:53 AM,34.0,28.9,82,30.44,10.0,Calm,Calm,-,N/A,,Clear,0,2012-10-27 14:53:00
10:53 AM,37.0,28.9,73,30.43,10.0,Calm,Calm,-,N/A,,Clear,0,2012-10-27 15:53:00
11:53 AM,39.9,28.0,63,30.40,10.0,ESE,4.6,-,N/A,,Clear,110,2012-10-27 16:53:00
12:53 PM,42.1,27.0,55,30.38,10.0,ESE,3.5,-,N/A,,Clear,110,2012-10-27 17:53:00
1:53 PM,43.0,26.1,51,30.35,10.0,ESE,3.5,-,N/A,,Clear,110,2012-10-27 18:53:00
2:53 PM,45.0,27.0,49,30.32,10.0,ESE,8.1,-,N/A,,Clear,110,2012-10-27 19:53:00
3:53 PM,46.0,25.0,44,30.30,10.0,Calm,Calm,-,N/A,,Clear,0,2012-10-27 20:53:00
4:53 PM,45.0,26.1,48,30.29,10.0,East,3.5,-,N/A,,Clear,80,2012-10-27 21:53:00
5:53 PM,44.1,26.1,49,30.29,10.0,Calm,Calm,-,N/A,,Clear,0,2012-10-27 22:53:00
6:53 PM,41.0,25.0,53,30.30,10.0,ENE,3.5,-,N/A,,Clear,70,2012-10-27 23:53:00
7:53 PM,39.9,25.0,55,30.31,10.0,Calm,Calm,-,N/A,,Clear,0,2012-10-28 00:53:00
8:53 PM,37.9,26.1,62,30.32,10.0,Calm,Calm,-,N/A,,Clear,0,2012-10-28 01:53:00
9:53 PM,37.0,26.1,65,30.31,10.0,East,3.5,-,N/A,,Clear,100,2012-10-28 02:53:00
10:53 PM,36.0,27.0,70,30.33,10.0,Calm,Calm,-,N/A,,Clear,0,2012-10-28 03:53:00
11:53 PM,37.0,27.0,67,30.33,10.0,Calm,Calm,-,N/A,,Partly Cloudy,0,2012-10-28 04:53:00